LYNK TOWER 5

导读

LYNK TOWER 5(领克塔5)由美国Lynk Global公司于2024年3月4日发射,属于Lynk Tower系列低轨直连通信卫星,运行在525~545km轨道高度,使用617~960MHz蜂窝频段,可兼容现有普通手机。该卫星旨在为偏远通信盲区提供手机直连卫星通信服务,助力Lynk Global补全全球通信覆盖,目前已支撑该公司在多国完成测试,逐步推进商用落地,重点服务应急通信、物联网等场景。

Basic Information
目录编号:
59121
目录名称:
LYNK TOWER 5
国际标识:
2024-043Z
轨道中心:
EARTH
卫星名称:
LYNK TOWER 5
卫星全名:
--
卫星状态:
在轨 (已飞行914 天)
发射日期:
2024-03-04 UTC
国别 :
美国 (US)
星等 :
--
Orbit Information
数据来源 国际轨道数据
星历时间: 2026-09-02T15:31:05+0800
1天前
查看轨道信息
半长轴: 6849.578km
偏心率: 0.0010213
轨道倾角: 97.575°
近地点辐角 342.544°
升交点赤经 24.359°
平近点角 17.545°
近地点: 464.445km
远地点: 478.437km
周期: 94.028分钟
每日圈数: 15.314652
Detailed Information
使用方式:
暂无
2D Orbit Map
3D Orbit Map
Orbit Altitude Analysis Chart
Orbit Inclination Analysis Chart
Orbit Comprehensive Analysis Chart
View Comprehensive Chart
Conjunction Data List
Event ID Objects TCA Miss Dist (km) Collision Risk Probability Collision Risk Index (CRI) Action
CDM_260829-053505-912106-680122
2026-08-29T
05:35:43+0000
0.102 km
中距离
1.197184E-3 极高风险 0.97
CDM_260903-181104-837805-912122
2026-09-03T
18:11:43+0000
0.583 km
远距离
1.381341E-4 高风险 0.78
CDM_260830-025305-392905-912124
2026-08-30T
02:53:13+0000
0.795 km
远距离
5.540009E-5 中风险 0.7
CDM_260830-025205-175005-912123
2026-08-30T
02:52:31+0000
1.047 km
极远距离
2.228878E-5 中风险 0.62
CDM_260830-042705-392905-912124
2026-08-30T
04:27:16+0000
1.203 km
极远距离
1.358332E-5 中风险 0.58
CDM_260904-074605-912106-765222
2026-09-04T
07:46:51+0000
1.390 km
极远距离
7.562893E-6 低风险 0.53
CDM_260903-175505-378005-912123
2026-09-03T
17:55:27+0000
1.825 km
极远距离
3.642989E-6 低风险 0.46
CDM_260904-095104-608305-912123
2026-09-04T
09:51:06+0000
1.617 km
极远距离
3.269279E-6 低风险 0.45
CDM_260903-153505-912106-679322
2026-09-03T
15:35:29+0000
1.959 km
极远距离
2.945707E-6 低风险 0.44
CDM_260829-202105-264605-912123
2026-08-29T
20:21:03+0000
2.027 km
极远距离
2.758154E-6 低风险 0.44